Home   Weather   Chatham   Past weeks
Flag for United Kingdom

Past Weather in Chatham, England, United Kingdom — Yesterday and Last 2 Weeks

Now
50 °F

Sunny.


Feels Like: 46 °F
Forecast: 63 / 44 °F
Wind: 10 mph from Southeast

Location: Southend Airport-On-Sea

Current Time: Apr 4, 2020 at 7:26:44 pm

Latest Report: Apr 4, 2020 at 6:50 pm


Visibility: 10 mi

Pressure: 30.12 "Hg

Humidity: 71%

Dew Point: 41 °F

Location of ChathamLocation

Past Weather in Chatham — Graph

°F

Chatham Temperature Yesterday

Maximum temperature yesterday: 52 °F (at 1:20 pm)
Minimum temperature yesterday: 43 °F (at 11:20 pm)
Average temperature yesterday: 47 °F

High & Low Weather Summary for the Past Weeks

 TemperatureHumidityPressure
High59 °F (Apr 4, 3:20 pm)100% (Mar 25, 1:20 am)30.69 "Hg (Mar 25, 1:20 am)
Low27 °F (Mar 25, 4:50 am)32% (Mar 26, 1:20 pm)29.89 "Hg (Apr 2, 4:20 pm)
Average43 °F71%30.29 "Hg
* Reported Mar 20 5:20 pm — Apr 4 6:20 pm, Chatham. Weather by CustomWeather, © 2020

Note: Actual official high and low records may vary slightly from our data, if they occured in-between our weather recording intervals... More about our weather records

Chatham Weather History for the Previous 24 Hours

Scroll right to see more
 ConditionsComfort  
Time TempWeatherWind HumidityBarometerVisibility
6:20 pm
Sat, Apr 4
54 °FSunny.13 mph63%30.12 "Hg10 mi
5:20 pm55 °FSunny.13 mph59%30.12 "Hg10 mi
4:50 pm55 °FSunny.14 mph59%30.12 "Hg10 mi
4:20 pm57 °FSunny.13 mph55%30.12 "Hg10 mi
3:50 pm57 °FPassing clouds.12 mph48%30.12 "HgN/A
3:20 pm59 °FPassing clouds.12 mph45%30.12 "HgN/A
2:50 pm57 °FPassing clouds.10 mph51%30.12 "HgN/A
2:20 pm57 °FPassing clouds.7 mph48%30.15 "HgN/A
1:50 pm57 °FPassing clouds.10 mph55%30.15 "HgN/A
1:20 pm57 °FPassing clouds.10 mph55%30.15 "HgN/A
12:50 pm57 °FPassing clouds.12 mph59%30.15 "HgN/A
12:20 pm54 °FPassing clouds.7 mph72%30.15 "HgN/A
11:50 am52 °FPassing clouds.12 mph77%30.15 "HgN/A
11:20 am52 °FPassing clouds.8 mph77%30.18 "HgN/A
10:50 am50 °FPassing clouds.8 mph82%30.18 "HgN/A
10:20 am48 °FPassing clouds.8 mph87%30.18 "HgN/A
9:50 am45 °FPassing clouds.7 mph100%30.18 "HgN/A
8:50 am43 °FFog.9 mph100%30.15 "Hg1 mi
8:20 am41 °FFog.10 mph100%30.15 "Hg1 mi
7:50 am41 °FFog.9 mph100%30.15 "Hg2 mi
7:20 am41 °FSunny.8 mph100%30.15 "Hg10 mi
6:50 am34 °FSunny.2 mph100%30.12 "Hg10 mi
6:20 am34 °FClear.2 mph100%30.12 "Hg10 mi
5:50 am34 °FClear.3 mph93%30.12 "Hg10 mi
5:20 am34 °FClear.No wind93%30.12 "Hg10 mi
4:50 am34 °FClear.No wind93%30.12 "Hg10 mi
4:20 am34 °FClear.No wind93%30.12 "Hg10 mi
3:50 am34 °FClear.No wind100%30.12 "Hg10 mi
2:50 am36 °FClear.No wind93%30.12 "Hg10 mi
12:50 am41 °FClear.5 mph93%30.12 "Hg10 mi
12:20 am43 °FClear.5 mph93%30.09 "Hg10 mi
11:50 pm
Fri, Apr 3
43 °FClear.5 mph93%30.09 "Hg10 mi
11:20 pm43 °FClear.5 mph87%30.09 "Hg10 mi
10:50 pm45 °FClear.7 mph87%30.09 "Hg10 mi
10:20 pm45 °FClear.8 mph87%30.09 "Hg10 mi
9:50 pm46 °FClear.7 mph76%30.09 "Hg10 mi
9:20 pm46 °FClear.7 mph71%30.09 "Hg10 mi
8:50 pm46 °FClear.3 mph71%30.09 "Hg10 mi
8:20 pm45 °FClear.2 mph76%30.09 "Hg10 mi
7:50 pm45 °FClear.1 mph76%30.09 "Hg10 mi
7:20 pm45 °FSunny.1 mph71%30.07 "Hg10 mi
Weather by CustomWeather, © 2020

See weather overview

Advertising